PRIVATE WETTERSTATION BILLIGHEIM-ALLFELD                       ZURCK
Wetterdaten: Donnerstag, 11.05.2017
Datum Zeit Temp. A. Temp. A. min Temp. A. max Feuchte A. Luftdruck Regen Wind Richtung Richtung Sonnenschein ET Solar Taupunkt Windchill Windben Empfang
11.05.2017 00:00 7,3 C 7,3 C 7,5 C 84 % 1004,3 hPa 0,0 l/m 1,7 km/h (1 Bft) N-NW 330 0 min 0,000 mm 0 W/m 4,8 C 7,3 C 6,4 km/h (2 Bft) 100 %
11.05.2017 00:10 7,2 C 7,2 C 7,3 C 85 % 1004,3 hPa 0,0 l/m 0,0 km/h (0 Bft) N-NW 333 0 min 3,150 mm 0 W/m 4,9 C 7,2 C 1,6 km/h (1 Bft) 100 %
11.05.2017 00:20 7,1 C 7,1 C 7,2 C 85 % 1004,3 hPa 0,0 l/m 0,1 km/h (0 Bft) N-NW 333 0 min 0,000 mm 0 W/m 4,8 C 7,1 C 3,2 km/h (1 Bft) 100 %
11.05.2017 00:30 7,0 C 7,0 C 7,1 C 85 % 1004,1 hPa 0,0 l/m 0,0 km/h (0 Bft) N-NW 334 0 min 0,000 mm 0 W/m 4,7 C 7,0 C 1,6 km/h (1 Bft) 100 %
11.05.2017 00:40 6,9 C 6,9 C 7,0 C 86 % 1004,2 hPa 0,0 l/m 0,0 km/h (0 Bft) N-NW 336 0 min 0,000 mm 0 W/m 4,7 C 6,9 C 1,6 km/h (1 Bft) 100 %
11.05.2017 00:50 6,9 C 6,9 C 6,9 C 86 % 1004,2 hPa 0,0 l/m 0,0 km/h (0 Bft) N-NW 336 0 min 0,000 mm 0 W/m 4,7 C 6,9 C 0,0 km/h (0 Bft) 100 %
11.05.2017 01:00 6,8 C 6,8 C 6,9 C 86 % 1004,1 hPa 0,0 l/m 0,1 km/h (0 Bft) N-NW 336 0 min 0,000 mm 0 W/m 4,6 C 6,8 C 3,2 km/h (1 Bft) 100 %
11.05.2017 01:10 6,7 C 6,7 C 6,8 C 87 % 1004,0 hPa 0,0 l/m 0,0 km/h (0 Bft) N-NW 336 0 min 0,000 mm 0 W/m 4,7 C 6,7 C 1,6 km/h (1 Bft) 100 %
11.05.2017 01:20 6,5 C 6,5 C 6,7 C 87 % 1004,0 hPa 0,0 l/m 0,0 km/h (0 Bft) N-NW 336 0 min 0,000 mm 0 W/m 4,5 C 6,5 C 0,0 km/h (0 Bft) 100 %
11.05.2017 01:30 6,4 C 6,4 C 6,5 C 87 % 1003,9 hPa 0,0 l/m 0,3 km/h (0 Bft) N-NW 336 0 min 0,000 mm 0 W/m 4,4 C 6,4 C 3,2 km/h (1 Bft) 100 %
11.05.2017 01:40 6,3 C 6,3 C 6,4 C 87 % 1003,9 hPa 0,0 l/m 0,4 km/h (0 Bft) N-NW 338 0 min 0,000 mm 0 W/m 4,3 C 6,3 C 4,8 km/h (1 Bft) 100 %
11.05.2017 01:50 6,2 C 6,2 C 6,3 C 88 % 1003,8 hPa 0,0 l/m 1,5 km/h (1 Bft) N-NW 340 0 min 0,000 mm 0 W/m 4,4 C 6,2 C 4,8 km/h (1 Bft) 100 %
11.05.2017 02:00 6,1 C 6,1 C 6,2 C 88 % 1003,8 hPa 0,0 l/m 0,0 km/h (0 Bft) N-NW 340 0 min 0,000 mm 0 W/m 4,3 C 6,1 C 1,6 km/h (1 Bft) 100 %
11.05.2017 02:10 6,1 C 6,1 C 6,1 C 88 % 1003,8 hPa 0,0 l/m 0,8 km/h (0 Bft) N-NW 340 0 min 0,000 mm 0 W/m 4,3 C 6,1 C 4,8 km/h (1 Bft) 100 %
11.05.2017 02:20 6,0 C 6,0 C 6,1 C 88 % 1003,8 hPa 0,0 l/m 0,8 km/h (0 Bft) N-NW 340 0 min 0,000 mm 0 W/m 4,2 C 6,0 C 4,8 km/h (1 Bft) 91 %
11.05.2017 02:30 6,0 C 5,9 C 6,0 C 88 % 1003,8 hPa 0,0 l/m 0,2 km/h (0 Bft) N-NW 340 0 min 0,000 mm 0 W/m 4,2 C 6,0 C 3,2 km/h (1 Bft) 100 %
11.05.2017 02:40 6,1 C 6,0 C 6,1 C 88 % 1003,7 hPa 0,0 l/m 0,0 km/h (0 Bft) N-NW 340 0 min 0,000 mm 0 W/m 4,3 C 6,1 C 0,0 km/h (0 Bft) 100 %
11.05.2017 02:50 6,0 C 6,0 C 6,1 C 88 % 1003,7 hPa 0,0 l/m 0,0 km/h (0 Bft) N-NW 340 0 min 0,000 mm 0 W/m 4,2 C 6,0 C 0,0 km/h (0 Bft) 100 %
11.05.2017 03:00 6,0 C 6,0 C 6,1 C 88 % 1003,6 hPa 0,0 l/m 0,0 km/h (0 Bft) N-NW 340 0 min 0,000 mm 0 W/m 4,2 C 6,0 C 0,0 km/h (0 Bft) 100 %
11.05.2017 03:10 5,9 C 5,9 C 6,1 C 88 % 1003,5 hPa 0,0 l/m 0,0 km/h (0 Bft) N-NW 340 0 min 0,000 mm 0 W/m 4,1 C 5,9 C 0,0 km/h (0 Bft) 100 %
11.05.2017 03:20 5,8 C 5,8 C 5,9 C 88 % 1003,6 hPa 0,0 l/m 0,0 km/h (0 Bft) N-NW 340 0 min 0,000 mm 0 W/m 4,0 C 5,8 C 0,0 km/h (0 Bft) 100 %
11.05.2017 03:30 5,7 C 5,7 C 5,8 C 89 % 1003,5 hPa 0,0 l/m 0,0 km/h (0 Bft) N-NW 340 0 min 0,000 mm 0 W/m 4,0 C 5,7 C 1,6 km/h (1 Bft) 100 %
11.05.2017 03:40 5,6 C 5,6 C 5,7 C 89 % 1003,4 hPa 0,0 l/m 0,9 km/h (0 Bft) N-NW 340 0 min 0,000 mm 0 W/m 3,9 C 5,6 C 4,8 km/h (1 Bft) 100 %
11.05.2017 03:50 5,5 C 5,5 C 5,6 C 89 % 1003,4 hPa 0,0 l/m 0,0 km/h (0 Bft) N-NW 340 0 min 0,000 mm 0 W/m 3,8 C 5,5 C 1,6 km/h (1 Bft) 100 %
11.05.2017 04:00 5,4 C 5,3 C 5,5 C 89 % 1003,4 hPa 0,0 l/m 0,0 km/h (0 Bft) N-NW 340 0 min 0,000 mm 0 W/m 3,7 C 5,4 C 0,0 km/h (0 Bft) 100 %
11.05.2017 04:10 5,2 C 5,2 C 5,4 C 89 % 1003,3 hPa 0,0 l/m 1,3 km/h (1 Bft) N-NW 340 0 min 0,000 mm 0 W/m 3,5 C 5,2 C 4,8 km/h (1 Bft) 100 %
11.05.2017 04:20 5,2 C 5,2 C 5,2 C 90 % 1003,3 hPa 0,0 l/m 0,0 km/h (0 Bft) N-NW 340 0 min 0,000 mm 0 W/m 3,7 C 5,2 C 0,0 km/h (0 Bft) 100 %
11.05.2017 04:30 5,2 C 5,1 C 5,2 C 90 % 1003,3 hPa 0,0 l/m 0,0 km/h (0 Bft) N-NW 340 0 min 0,000 mm 0 W/m 3,7 C 5,2 C 0,0 km/h (0 Bft) 100 %
11.05.2017 04:40 5,2 C 5,2 C 5,2 C 90 % 1003,2 hPa 0,0 l/m 0,0 km/h (0 Bft) N-NW 340 0 min 0,000 mm 0 W/m 3,7 C 5,2 C 0,0 km/h (0 Bft) 100 %
11.05.2017 04:50 5,1 C 5,1 C 5,2 C 90 % 1003,1 hPa 0,0 l/m 0,5 km/h (0 Bft) N-NW 340 0 min 0,000 mm 0 W/m 3,6 C 5,1 C 3,2 km/h (1 Bft) 100 %
11.05.2017 05:00 5,2 C 5,1 C 5,2 C 90 % 1002,7 hPa 0,0 l/m 0,0 km/h (0 Bft) N-NW 340 0 min 0,000 mm 0 W/m 3,7 C 5,2 C 1,6 km/h (1 Bft) 100 %
11.05.2017 05:10 5,2 C 5,1 C 5,2 C 90 % 1002,7 hPa 0,0 l/m 0,0 km/h (0 Bft) N-NW 340 0 min 0,000 mm 0 W/m 3,7 C 5,2 C 0,0 km/h (0 Bft) 91 %
11.05.2017 05:20 5,0 C 5,0 C 5,2 C 90 % 1002,6 hPa 0,0 l/m 0,8 km/h (0 Bft) N-NW 340 0 min 0,000 mm 0 W/m 3,5 C 5,0 C 3,2 km/h (1 Bft) 100 %
11.05.2017 05:30 4,8 C 4,8 C 5,0 C 90 % 1002,5 hPa 0,0 l/m 0,0 km/h (0 Bft) N-NW 340 0 min 0,000 mm 0 W/m 3,3 C 4,8 C 0,0 km/h (0 Bft) 100 %
11.05.2017 05:40 4,7 C 4,7 C 4,8 C 90 % 1002,7 hPa 0,0 l/m 0,0 km/h (0 Bft) N-NW 340 0 min 0,000 mm 0 W/m 3,2 C 4,7 C 1,6 km/h (1 Bft) 100 %
11.05.2017 05:50 4,6 C 4,6 C 4,7 C 91 % 1002,5 hPa 0,0 l/m 0,0 km/h (0 Bft) N-NW 340 0 min 0,000 mm 0 W/m 3,3 C 4,6 C 0,0 km/h (0 Bft) 100 %
11.05.2017 06:00 4,4 C 4,4 C 4,6 C 91 % 1002,6 hPa 0,0 l/m 0,0 km/h (0 Bft) N-NW 340 0 min 0,000 mm 7 W/m 3,1 C 4,4 C 0,0 km/h (0 Bft) 100 %
11.05.2017 06:10 4,4 C 4,4 C 4,4 C 91 % 1002,5 hPa 0,0 l/m 0,0 km/h (0 Bft) N-NW 340 0 min 0,000 mm 11 W/m 3,1 C 4,4 C 0,0 km/h (0 Bft) 91 %
11.05.2017 06:20 4,4 C 4,4 C 4,5 C 91 % 1002,6 hPa 0,0 l/m 0,0 km/h (0 Bft) N-NW 340 0 min 0,000 mm 12 W/m 3,1 C 4,4 C 0,0 km/h (0 Bft) 100 %
11.05.2017 06:30 4,5 C 4,4 C 4,5 C 91 % 1002,5 hPa 0,0 l/m 0,0 km/h (0 Bft) N-NW 340 0 min 0,000 mm 18 W/m 3,2 C 4,5 C 0,0 km/h (0 Bft) 100 %
11.05.2017 06:40 4,5 C 4,5 C 4,5 C 91 % 1002,4 hPa 0,0 l/m 0,0 km/h (0 Bft) N-NW 340 0 min 0,000 mm 21 W/m 3,2 C 4,5 C 0,0 km/h (0 Bft) 100 %
11.05.2017 06:50 4,6 C 4,5 C 4,6 C 91 % 1002,4 hPa 0,0 l/m 0,0 km/h (0 Bft) N-NW 340 0 min 0,000 mm 25 W/m 3,3 C 4,6 C 0,0 km/h (0 Bft) 100 %
11.05.2017 07:00 4,6 C 4,6 C 4,6 C 91 % 1002,4 hPa 0,0 l/m 0,0 km/h (0 Bft) N-NW 340 0 min 0,000 mm 26 W/m 3,3 C 4,6 C 0,0 km/h (0 Bft) 100 %
11.05.2017 07:10 4,8 C 4,6 C 4,8 C 91 % 1002,4 hPa 0,0 l/m 0,0 km/h (0 Bft) N-NW 340 0 min 0,000 mm 30 W/m 3,5 C 4,8 C 1,6 km/h (1 Bft) 100 %
11.05.2017 07:20 5,1 C 4,8 C 5,1 C 91 % 1002,4 hPa 0,0 l/m 0,0 km/h (0 Bft) N-NW 340 0 min 0,000 mm 37 W/m 3,8 C 5,1 C 0,0 km/h (0 Bft) 100 %
11.05.2017 07:30 5,4 C 5,1 C 5,4 C 91 % 1002,4 hPa 0,0 l/m 0,0 km/h (0 Bft) N-NW 340 0 min 0,000 mm 47 W/m 4,1 C 5,4 C 0,0 km/h (0 Bft) 100 %
11.05.2017 07:40 5,7 C 5,4 C 5,7 C 91 % 1002,3 hPa 0,0 l/m 0,0 km/h (0 Bft) N-NW 340 0 min 0,000 mm 60 W/m 4,3 C 5,7 C 0,0 km/h (0 Bft) 100 %
11.05.2017 07:50 6,0 C 5,7 C 6,0 C 91 % 1002,4 hPa 0,0 l/m 0,0 km/h (0 Bft) N-NW 340 0 min 0,000 mm 67 W/m 4,6 C 6,0 C 0,0 km/h (0 Bft) 100 %
11.05.2017 08:00 6,3 C 6,0 C 6,3 C 91 % 1002,3 hPa 0,0 l/m 0,0 km/h (0 Bft) N-NW 340 0 min 0,025 mm 69 W/m 4,9 C 6,3 C 0,0 km/h (0 Bft) 91 %
11.05.2017 08:10 6,8 C 6,3 C 6,8 C 91 % 1002,3 hPa 0,0 l/m 0,0 km/h (0 Bft) N-NW 340 0 min 0,000 mm 137 W/m 5,4 C 6,8 C 0,0 km/h (0 Bft) 100 %
11.05.2017 08:20 7,6 C 6,8 C 7,6 C 91 % 1002,2 hPa 0,0 l/m 0,0 km/h (0 Bft) N-NW 340 10 min 0,000 mm 193 W/m 6,2 C 7,6 C 1,6 km/h (1 Bft) 100 %
11.05.2017 08:30 8,5 C 7,6 C 8,5 C 91 % 1002,2 hPa 0,0 l/m 0,0 km/h (0 Bft) N-NW 340 0 min 0,000 mm 128 W/m 7,1 C 8,5 C 0,0 km/h (0 Bft) 100 %
11.05.2017 08:40 9,2 C 8,5 C 9,2 C 91 % 1002,3 hPa 0,0 l/m 0,0 km/h (0 Bft) N-NW 340 10 min 0,000 mm 443 W/m 7,8 C 9,2 C 0,0 km/h (0 Bft) 100 %
11.05.2017 08:50 10,7 C 9,2 C 10,7 C 91 % 1002,3 hPa 0,0 l/m 0,0 km/h (0 Bft) N-NW 340 10 min 0,000 mm 408 W/m 9,3 C 10,7 C 0,0 km/h (0 Bft) 97 %
11.05.2017 09:00 12,2 C 10,7 C 12,2 C 88 % 1002,2 hPa 0,0 l/m 0,0 km/h (0 Bft) N-NW 340 10 min 0,127 mm 315 W/m 10,3 C 12,2 C 1,6 km/h (1 Bft) 97 %
11.05.2017 09:10 13,1 C 12,2 C 13,1 C 80 % 1002,3 hPa 0,0 l/m 0,0 km/h (0 Bft) NW 322 10 min 0,000 mm 311 W/m 9,7 C 13,1 C 1,6 km/h (1 Bft) 98 %
11.05.2017 09:20 13,6 C 13,1 C 13,6 C 80 % 1002,3 hPa 0,0 l/m 0,0 km/h (0 Bft) NW 322 10 min 0,000 mm 301 W/m 10,2 C 13,6 C 0,0 km/h (0 Bft) 97 %
11.05.2017 09:30 14,2 C 13,6 C 14,2 C 79 % 1002,2 hPa 0,0 l/m 0,0 km/h (0 Bft) NW 322 10 min 0,000 mm 381 W/m 10,6 C 14,2 C 0,0 km/h (0 Bft) 97 %
11.05.2017 09:40 14,5 C 14,2 C 14,5 C 75 % 1002,0 hPa 0,0 l/m 0,0 km/h (0 Bft) NW 322 10 min 0,000 mm 234 W/m 10,1 C 14,5 C 0,0 km/h (0 Bft) 98 %
11.05.2017 09:50 14,7 C 14,5 C 14,7 C 76 % 1001,9 hPa 0,0 l/m 0,0 km/h (0 Bft) NW 322 10 min 0,000 mm 246 W/m 10,5 C 14,7 C 1,6 km/h (1 Bft) 97 %
11.05.2017 10:00 15,1 C 14,7 C 15,1 C 76 % 1001,8 hPa 0,0 l/m 0,0 km/h (0 Bft) NW 322 10 min 0,152 mm 473 W/m 10,9 C 15,1 C 0,0 km/h (0 Bft) 97 %
11.05.2017 10:10 15,4 C 15,1 C 15,4 C 70 % 1001,7 hPa 0,0 l/m 0,0 km/h (0 Bft) NW 322 10 min 0,000 mm 506 W/m 10,0 C 15,4 C 0,0 km/h (0 Bft) 97 %
11.05.2017 10:20 16,4 C 15,4 C 16,4 C 73 % 1001,9 hPa 0,0 l/m 0,0 km/h (0 Bft) NW 322 10 min 0,000 mm 677 W/m 11,5 C 16,4 C 0,0 km/h (0 Bft) 98 %
11.05.2017 10:30 16,9 C 16,4 C 16,9 C 70 % 1001,6 hPa 0,0 l/m 0,0 km/h (0 Bft) N-NW 328 10 min 0,000 mm 385 W/m 11,4 C 16,9 C 1,6 km/h (1 Bft) 97 %
11.05.2017 10:40 16,9 C 16,9 C 17,0 C 63 % 1001,7 hPa 0,0 l/m 0,0 km/h (0 Bft) SO 136 0 min 0,000 mm 142 W/m 9,8 C 16,9 C 1,6 km/h (1 Bft) 97 %
11.05.2017 10:50 16,6 C 16,6 C 16,9 C 66 % 1001,6 hPa 0,0 l/m 2,1 km/h (1 Bft) O-SO 110 10 min 0,000 mm 190 W/m 10,2 C 16,6 C 8,0 km/h (2 Bft) 98 %
11.05.2017 11:00 16,4 C 16,4 C 16,6 C 66 % 1001,7 hPa 0,0 l/m 0,0 km/h (0 Bft) O-SO 117 10 min 0,178 mm 160 W/m 10,0 C 16,4 C 1,6 km/h (1 Bft) 97 %
11.05.2017 11:10 16,3 C 16,3 C 16,4 C 72 % 1001,6 hPa 0,0 l/m 0,0 km/h (0 Bft) O-SO 113 10 min 0,000 mm 160 W/m 11,2 C 16,3 C 1,6 km/h (1 Bft) 97 %
11.05.2017 11:20 16,1 C 16,1 C 16,3 C 70 % 1001,5 hPa 0,0 l/m 0,0 km/h (0 Bft) O-SO 113 10 min 0,000 mm 301 W/m 10,6 C 16,1 C 0,0 km/h (0 Bft) 97 %
11.05.2017 11:30 16,5 C 16,1 C 16,5 C 74 % 1001,2 hPa 0,0 l/m 0,2 km/h (0 Bft) O-SO 103 10 min 0,000 mm 408 W/m 11,8 C 16,5 C 3,2 km/h (1 Bft) 98 %
11.05.2017 11:40 17,1 C 16,5 C 17,1 C 71 % 1001,3 hPa 0,0 l/m 0,0 km/h (0 Bft) N 350 10 min 0,000 mm 429 W/m 11,8 C 17,1 C 1,6 km/h (1 Bft) 97 %
11.05.2017 11:50 18,0 C 17,1 C 18,0 C 68 % 1001,1 hPa 0,0 l/m 0,0 km/h (0 Bft) N-NW 332 10 min 0,000 mm 1081 W/m 12,0 C 18,0 C 0,0 km/h (0 Bft) 97 %
11.05.2017 12:00 19,2 C 18,0 C 19,2 C 66 % 1001,1 hPa 0,0 l/m 0,0 km/h (0 Bft) W 265 10 min 0,280 mm 629 W/m 12,7 C 19,2 C 1,6 km/h (1 Bft) 98 %
11.05.2017 12:10 19,8 C 19,2 C 19,8 C 61 % 1000,8 hPa 0,0 l/m 1,7 km/h (1 Bft) O 84 10 min 0,000 mm 902 W/m 12,1 C 19,8 C 16,1 km/h (3 Bft) 97 %
11.05.2017 12:20 20,3 C 19,8 C 20,3 C 58 % 1000,7 hPa 0,0 l/m 1,9 km/h (1 Bft) NO 53 10 min 0,000 mm 925 W/m 11,8 C 20,3 C 14,5 km/h (3 Bft) 98 %
11.05.2017 12:30 19,9 C 19,9 C 20,3 C 60 % 1000,7 hPa 0,0 l/m 2,2 km/h (1 Bft) O-NO 69 10 min 0,000 mm 571 W/m 11,9 C 19,9 C 14,5 km/h (3 Bft) 97 %
11.05.2017 12:40 20,0 C 19,9 C 20,0 C 56 % 1000,4 hPa 0,0 l/m 0,5 km/h (0 Bft) SO 130 10 min 0,000 mm 564 W/m 11,0 C 20,0 C 8,0 km/h (2 Bft) 98 %
11.05.2017 12:50 20,3 C 20,0 C 20,3 C 58 % 1000,4 hPa 0,0 l/m 1,8 km/h (1 Bft) O-NO 70 10 min 0,000 mm 879 W/m 11,8 C 20,3 C 16,1 km/h (3 Bft) 97 %
11.05.2017 13:00 20,8 C 20,3 C 20,9 C 55 % 1000,3 hPa 0,0 l/m 2,8 km/h (1 Bft) O 96 10 min 0,457 mm 942 W/m 11,4 C 20,8 C 16,1 km/h (3 Bft) 97 %
11.05.2017 13:10 21,2 C 20,8 C 21,2 C 54 % 1000,3 hPa 0,0 l/m 4,8 km/h (1 Bft) O-NO 69 10 min 0,000 mm 969 W/m 11,5 C 21,2 C 17,7 km/h (3 Bft) 98 %
11.05.2017 13:20 21,6 C 21,2 C 21,6 C 57 % 1000,0 hPa 0,0 l/m 1,7 km/h (1 Bft) O 100 10 min 0,000 mm 1013 W/m 12,7 C 21,6 C 11,3 km/h (2 Bft) 97 %
11.05.2017 13:30 21,7 C 21,6 C 21,8 C 54 % 999,8 hPa 0,0 l/m 1,8 km/h (1 Bft) S-SO 149 10 min 0,000 mm 879 W/m 12,0 C 21,7 C 14,5 km/h (3 Bft) 98 %
11.05.2017 13:40 22,1 C 21,7 C 22,1 C 50 % 999,7 hPa 0,0 l/m 1,3 km/h (1 Bft) S 190 10 min 0,000 mm 969 W/m 11,2 C 22,1 C 11,3 km/h (2 Bft) 98 %
11.05.2017 13:50 22,2 C 22,1 C 22,3 C 49 % 999,5 hPa 0,0 l/m 1,8 km/h (1 Bft) O 98 10 min 0,000 mm 497 W/m 11,0 C 22,2 C 14,5 km/h (3 Bft) 98 %
11.05.2017 14:00 21,8 C 21,8 C 22,2 C 51 % 999,4 hPa 0,0 l/m 2,3 km/h (1 Bft) S-SO 147 10 min 0,457 mm 729 W/m 11,2 C 21,8 C 16,1 km/h (3 Bft) 97 %
11.05.2017 14:10 21,9 C 21,7 C 21,9 C 51 % 999,3 hPa 0,0 l/m 1,8 km/h (1 Bft) O-NO 77 10 min 0,000 mm 531 W/m 11,3 C 21,9 C 11,3 km/h (2 Bft) 97 %
11.05.2017 14:20 22,2 C 21,9 C 22,2 C 50 % 999,2 hPa 0,0 l/m 1,3 km/h (1 Bft) O-SO 103 10 min 0,000 mm 615 W/m 11,3 C 22,2 C 12,9 km/h (3 Bft) 98 %
11.05.2017 14:30 22,4 C 22,2 C 22,4 C 51 % 999,1 hPa 0,0 l/m 2,1 km/h (1 Bft) O 97 10 min 0,000 mm 529 W/m 11,8 C 22,4 C 14,5 km/h (3 Bft) 97 %
11.05.2017 14:40 22,4 C 22,3 C 22,4 C 49 % 999,0 hPa 0,0 l/m 2,9 km/h (1 Bft) O-SO 103 10 min 0,000 mm 679 W/m 11,2 C 22,4 C 19,3 km/h (3 Bft) 98 %
11.05.2017 14:50 22,3 C 22,3 C 22,4 C 51 % 998,9 hPa 0,0 l/m 1,2 km/h (1 Bft) SO 130 10 min 0,000 mm 315 W/m 11,7 C 22,3 C 14,5 km/h (3 Bft) 97 %
11.05.2017 15:00 22,3 C 22,2 C 22,3 C 51 % 998,7 hPa 0,0 l/m 0,7 km/h (0 Bft) S-SO 149 10 min 0,330 mm 415 W/m 11,7 C 22,3 C 14,5 km/h (3 Bft) 97 %
11.05.2017 15:10 22,4 C 22,3 C 22,4 C 49 % 998,7 hPa 0,0 l/m 0,2 km/h (0 Bft) O 96 10 min 0,000 mm 369 W/m 11,2 C 22,4 C 6,4 km/h (2 Bft) 98 %
11.05.2017 15:20 22,4 C 22,4 C 22,4 C 49 % 998,5 hPa 0,0 l/m 0,0 km/h (0 Bft) O-SO 118 10 min 0,000 mm 345 W/m 11,2 C 22,4 C 1,6 km/h (1 Bft) 98 %
11.05.2017 15:30 22,4 C 22,4 C 22,4 C 50 % 998,3 hPa 0,0 l/m 1,0 km/h (0 Bft) O 89 10 min 0,000 mm 332 W/m 11,5 C 22,4 C 16,1 km/h (3 Bft) 97 %
11.05.2017 15:40 22,3 C 22,3 C 22,4 C 50 % 998,1 hPa 0,0 l/m 0,3 km/h (0 Bft) O 92 10 min 0,000 mm 327 W/m 11,4 C 22,3 C 8,0 km/h (2 Bft) 97 %
11.05.2017 15:50 22,3 C 22,2 C 22,3 C 49 % 998,0 hPa 0,0 l/m 0,6 km/h (0 Bft) O-SO 113 10 min 0,000 mm 373 W/m 11,1 C 22,3 C 8,0 km/h (2 Bft) 98 %
11.05.2017 16:00 22,6 C 22,3 C 22,6 C 49 % 997,8 hPa 0,0 l/m 0,6 km/h (0 Bft) S 171 10 min 0,229 mm 534 W/m 11,3 C 22,6 C 11,3 km/h (2 Bft) 97 %
11.05.2017 16:10 23,0 C 22,6 C 23,1 C 48 % 997,8 hPa 0,0 l/m 2,5 km/h (1 Bft) SO 138 10 min 0,000 mm 585 W/m 11,4 C 23,0 C 12,9 km/h (3 Bft) 98 %
11.05.2017 16:20 23,1 C 23,0 C 23,1 C 48 % 997,8 hPa 0,0 l/m 1,6 km/h (1 Bft) S-SO 155 10 min 0,000 mm 461 W/m 11,5 C 23,1 C 12,9 km/h (3 Bft) 97 %
11.05.2017 16:30 23,1 C 23,1 C 23,2 C 40 % 997,6 hPa 0,0 l/m 0,3 km/h (0 Bft) SO 128 10 min 0,000 mm 239 W/m 8,8 C 23,1 C 6,4 km/h (2 Bft) 97 %
11.05.2017 16:40 22,7 C 22,7 C 23,1 C 42 % 997,5 hPa 0,0 l/m 2,9 km/h (1 Bft) SO 135 10 min 0,000 mm 232 W/m 9,1 C 22,7 C 14,5 km/h (3 Bft) 98 %
11.05.2017 16:50 22,2 C 22,2 C 22,7 C 43 % 997,5 hPa 0,0 l/m 3,6 km/h (1 Bft) O-SO 115 10 min 0,000 mm 200 W/m 9,0 C 22,2 C 16,1 km/h (3 Bft) 97 %
11.05.2017 17:00 22,1 C 22,1 C 22,2 C 46 % 997,3 hPa 0,0 l/m 0,7 km/h (0 Bft) S 175 10 min 0,228 mm 244 W/m 9,9 C 22,1 C 9,7 km/h (2 Bft) 97 %
11.05.2017 17:10 21,9 C 21,9 C 22,1 C 48 % 997,3 hPa 0,0 l/m 0,6 km/h (0 Bft) S 169 10 min 0,000 mm 202 W/m 10,4 C 21,9 C 6,4 km/h (2 Bft) 97 %
11.05.2017 17:20 21,7 C 21,7 C 21,9 C 49 % 997,2 hPa 0,0 l/m 0,4 km/h (0 Bft) SO 135 10 min 0,000 mm 197 W/m 10,5 C 21,7 C 9,7 km/h (2 Bft) 97 %
11.05.2017 17:30 21,6 C 21,6 C 21,7 C 45 % 997,1 hPa 0,0 l/m 0,1 km/h (0 Bft) S-SO 153 10 min 0,000 mm 158 W/m 9,2 C 21,6 C 4,8 km/h (1 Bft) 98 %
11.05.2017 17:40 21,6 C 21,5 C 21,6 C 50 % 997,1 hPa 0,0 l/m 0,0 km/h (0 Bft) S-SO 160 10 min 0,000 mm 155 W/m 10,7 C 21,6 C 1,6 km/h (1 Bft) 97 %
11.05.2017 17:50 21,5 C 21,5 C 21,6 C 50 % 997,1 hPa 0,0 l/m 0,0 km/h (0 Bft) S-SO 160 10 min 0,000 mm 158 W/m 10,6 C 21,5 C 0,0 km/h (0 Bft) 98 %
11.05.2017 18:00 21,5 C 21,5 C 21,6 C 54 % 997,1 hPa 0,0 l/m 0,0 km/h (0 Bft) S-SO 160 0 min 0,127 mm 114 W/m 11,8 C 21,5 C 0,0 km/h (0 Bft) 97 %
11.05.2017 18:10 21,4 C 21,4 C 21,5 C 55 % 997,2 hPa 0,0 l/m 0,0 km/h (0 Bft) S-SO 161 0 min 0,000 mm 72 W/m 12,0 C 21,4 C 1,6 km/h (1 Bft) 98 %
11.05.2017 18:20 19,8 C 19,8 C 21,4 C 55 % 997,5 hPa 0,0 l/m 13,5 km/h (3 Bft) S-SO 150 0 min 0,000 mm 49 W/m 10,5 C 17,4 C 30,6 km/h (5 Bft) 97 %
11.05.2017 18:30 18,8 C 18,8 C 19,8 C 59 % 997,8 hPa 0,0 l/m 13,2 km/h (3 Bft) S-SO 167 0 min 0,000 mm 42 W/m 10,6 C 16,3 C 27,4 km/h (4 Bft) 97 %
11.05.2017 18:40 18,2 C 18,2 C 18,8 C 63 % 997,8 hPa 0,0 l/m 8,3 km/h (2 Bft) S-SO 150 0 min 0,000 mm 62 W/m 11,0 C 17,3 C 25,7 km/h (4 Bft) 97 %
11.05.2017 18:50 17,9 C 17,9 C 18,2 C 62 % 997,9 hPa 0,0 l/m 12,3 km/h (3 Bft) S-SO 153 0 min 0,000 mm 54 W/m 10,5 C 15,5 C 29,0 km/h (5 Bft) 97 %
11.05.2017 19:00 17,6 C 17,6 C 17,9 C 64 % 997,9 hPa 0,0 l/m 9,6 km/h (2 Bft) S 171 0 min 0,102 mm 37 W/m 10,7 C 16,1 C 25,7 km/h (4 Bft) 98 %
11.05.2017 19:10 16,7 C 16,7 C 17,6 C 72 % 997,8 hPa 0,2 l/m 7,5 km/h (2 Bft) S-SW 200 0 min 0,000 mm 32 W/m 11,6 C 16,1 C 17,7 km/h (3 Bft) 98 %
11.05.2017 19:20 16,3 C 16,3 C 16,7 C 74 % 997,1 hPa 0,0 l/m 3,8 km/h (1 Bft) W-NW 296 0 min 0,000 mm 39 W/m 11,7 C 16,3 C 17,7 km/h (3 Bft) 97 %
11.05.2017 19:30 15,9 C 15,9 C 16,3 C 76 % 996,9 hPa 0,0 l/m 6,3 km/h (2 Bft) N-NW 347 0 min 0,000 mm 40 W/m 11,7 C 15,9 C 22,5 km/h (4 Bft) 97 %
11.05.2017 19:40 15,7 C 15,7 C 15,9 C 80 % 996,9 hPa 0,0 l/m 3,5 km/h (1 Bft) N 350 0 min 0,000 mm 40 W/m 12,3 C 15,7 C 16,1 km/h (3 Bft) 98 %
11.05.2017 19:50 15,5 C 15,5 C 15,7 C 80 % 997,2 hPa 0,0 l/m 1,9 km/h (1 Bft) SW 236 0 min 0,000 mm 25 W/m 12,1 C 15,5 C 12,9 km/h (3 Bft) 98 %
11.05.2017 20:00 15,4 C 15,4 C 15,5 C 82 % 997,3 hPa 0,0 l/m 1,5 km/h (1 Bft) NW 317 0 min 0,025 mm 14 W/m 12,3 C 15,4 C 11,3 km/h (2 Bft) 97 %
11.05.2017 20:10 15,2 C 15,2 C 15,4 C 84 % 997,3 hPa 0,0 l/m 0,1 km/h (0 Bft) N 349 0 min 0,000 mm 11 W/m 12,5 C 15,2 C 3,2 km/h (1 Bft) 98 %
11.05.2017 20:20 15,1 C 15,1 C 15,2 C 84 % 997,4 hPa 0,0 l/m 1,4 km/h (1 Bft) N 355 0 min 0,000 mm 11 W/m 12,4 C 15,1 C 14,5 km/h (3 Bft) 97 %
11.05.2017 20:30 14,7 C 14,7 C 15,1 C 85 % 998,1 hPa 0,0 l/m 2,3 km/h (1 Bft) S-SO 150 0 min 0,000 mm 5 W/m 12,2 C 14,7 C 20,9 km/h (4 Bft) 98 %
11.05.2017 20:40 14,8 C 14,7 C 14,9 C 83 % 997,8 hPa 0,0 l/m 9,0 km/h (2 Bft) N 351 0 min 0,000 mm 0 W/m 11,9 C 13,4 C 24,1 km/h (4 Bft) 97 %
11.05.2017 20:50 15,1 C 14,8 C 15,1 C 83 % 998,2 hPa 0,0 l/m 4,6 km/h (1 Bft) SO 144 0 min 0,000 mm 0 W/m 12,2 C 15,1 C 11,3 km/h (2 Bft) 97 %
11.05.2017 21:00 15,1 C 15,1 C 15,1 C 83 % 998,3 hPa 0,0 l/m 1,3 km/h (1 Bft) SO 140 0 min 0,000 mm 0 W/m 12,2 C 15,1 C 11,3 km/h (2 Bft) 98 %
11.05.2017 21:10 14,7 C 14,7 C 15,1 C 83 % 998,4 hPa 0,0 l/m 1,9 km/h (1 Bft) SO 133 0 min 0,000 mm 0 W/m 11,8 C 14,7 C 8,0 km/h (2 Bft) 97 %
11.05.2017 21:20 14,7 C 14,7 C 14,7 C 84 % 998,5 hPa 0,2 l/m 0,1 km/h (0 Bft) SO 140 0 min 0,000 mm 0 W/m 12,0 C 14,7 C 3,2 km/h (1 Bft) 98 %
11.05.2017 21:30 14,5 C 14,5 C 14,7 C 86 % 998,5 hPa 0,0 l/m 0,0 km/h (0 Bft) SO 146 0 min 0,000 mm 0 W/m 12,2 C 14,5 C 0,0 km/h (0 Bft) 97 %
11.05.2017 21:40 14,3 C 14,3 C 14,5 C 87 % 998,5 hPa 0,2 l/m 0,0 km/h (0 Bft) SO 146 0 min 0,000 mm 0 W/m 12,2 C 14,3 C 0,0 km/h (0 Bft) 98 %
11.05.2017 21:50 14,1 C 14,1 C 14,3 C 88 % 998,5 hPa 0,0 l/m 0,0 km/h (0 Bft) SO 144 0 min 0,000 mm 0 W/m 12,1 C 14,1 C 1,6 km/h (1 Bft) 97 %
11.05.2017 22:00 13,9 C 13,9 C 14,1 C 89 % 998,5 hPa 0,2 l/m 0,3 km/h (0 Bft) O-SO 110 0 min 0,000 mm 0 W/m 12,1 C 13,9 C 4,8 km/h (1 Bft) 98 %
11.05.2017 22:10 13,8 C 13,8 C 13,9 C 89 % 998,4 hPa 0,2 l/m 0,2 km/h (0 Bft) O 97 0 min 0,000 mm 0 W/m 12,0 C 13,8 C 6,4 km/h (2 Bft) 98 %
11.05.2017 22:20 13,6 C 13,6 C 13,8 C 89 % 998,3 hPa 0,0 l/m 0,0 km/h (0 Bft) O 97 0 min 0,000 mm 0 W/m 11,8 C 13,6 C 1,6 km/h (1 Bft) 97 %
11.05.2017 22:30 13,6 C 13,6 C 13,6 C 89 % 998,2 hPa 0,0 l/m 0,5 km/h (0 Bft) O-SO 109 0 min 0,000 mm 0 W/m 11,8 C 13,6 C 8,0 km/h (2 Bft) 97 %
11.05.2017 22:40 13,5 C 13,5 C 13,6 C 89 % 998,1 hPa 0,0 l/m 0,0 km/h (0 Bft) SO 135 0 min 0,000 mm 0 W/m 11,7 C 13,5 C 3,2 km/h (1 Bft) 100 %
11.05.2017 22:50 13,4 C 13,4 C 13,5 C 89 % 998,3 hPa 0,0 l/m 0,0 km/h (0 Bft) O-SO 112 0 min 0,000 mm 0 W/m 11,6 C 13,4 C 4,8 km/h (1 Bft) 99 %
11.05.2017 23:00 13,3 C 13,3 C 13,4 C 90 % 998,2 hPa 0,0 l/m 0,0 km/h (0 Bft) N 0 0 min 0,000 mm 0 W/m 11,7 C 13,3 C 0,0 km/h (0 Bft) 100 %
11.05.2017 23:10 13,3 C 13,3 C 13,3 C 90 % 998,1 hPa 0,0 l/m 0,0 km/h (0 Bft) W 270 0 min 0,000 mm 0 W/m 11,7 C 13,3 C 6,4 km/h (2 Bft) 99 %
11.05.2017 23:20 13,2 C 13,2 C 13,3 C 90 % 998,3 hPa 0,0 l/m 0,0 km/h (0 Bft) N 0 0 min 0,000 mm 0 W/m 11,6 C 13,2 C 0,0 km/h (0 Bft) 100 %
11.05.2017 23:30 13,1 C 13,1 C 13,2 C 90 % 998,3 hPa 0,0 l/m 0,0 km/h (0 Bft) N 0 0 min 0,000 mm 0 W/m 11,5 C 13,1 C 0,0 km/h (0 Bft) 100 %
11.05.2017 23:40 13,0 C 13,0 C 13,1 C 90 % 998,3 hPa 0,0 l/m 0,0 km/h (0 Bft) W 270 0 min 0,000 mm 0 W/m 11,4 C 13,0 C 1,6 km/h (1 Bft) 100 %
11.05.2017 23:50 12,8 C 12,8 C 13,0 C 90 % 998,3 hPa 0,0 l/m 0,0 km/h (0 Bft) N 0 0 min 0,000 mm 0 W/m 11,2 C 12,8 C 0,0 km/h (0 Bft) 100 %
_ Min-Zeit 06:00 06:00 06:10 16:30 19:30 - 00:10 - - - - - 06:00 06:00 00:50 02:20
Minimum _ 4,4 C 4,4 C 4,4 C 40 % 996,9 hPa - 0,0 km/h (0 Bft) - - - - - 3,1 C 4,4 C 0,0 km/h (0 Bft) 91 %
_ Max-Zeit 16:30 16:30 16:30 05:50 00:00 19:10 18:20 - - 08:20 00:10 11:50 13:20 16:20 18:20 00:20
Maximum _ 23,2 C 23,1 C 23,2 C 91 % 1004,3 hPa 0,2 l/m 13,5 km/h
S-SO (3 Bft)
- - 10 min 3,150 mm 1081 W/m 12,7 C 23,1 C 30,6 km/h
S-SO (5 Bft)
100 %
Durchschnitt _ 13,5 C 13,3 C 13,6 C 75 % 1000,6 hPa #1,0 l/m 1,1 km/h (1 Bft) S-SO - #9:20 h #5,867 mm 315 W/m 8,6 C 13,4 C 6,1 km/h (2 Bft) 98 %
PRIVATE WETTERSTATION BILLIGHEIM-ALLFELD - www.neckar-odenwald-wetter.de - Holger Sonntag